This is the latest recevied weather packets stored in our database for station/object K4CRS-13. If no packets are shown the sender has not sent any weather packets the latest 10 day(s).
| Time | Temp. | Humidity | Pressure | Rain* | Wind** | Luminosity | Snow |
|---|---|---|---|---|---|---|---|
| 1787394598 | 18.89° C | 99% | 1050.7 hPa | 0 mm | - | 0 W/m² | - |
| 1787394294 | 18.89° C | 99% | 1050.7 hPa | 0 mm | - | 0 W/m² | - |
| 1787393988 | 18.33° C | 99% | 1050.5 hPa | 0 mm | - | 0 W/m² | - |
| 1787393683 | 18.33° C | 99% | 1050.6 hPa | 0 mm | - | 0 W/m² | - |
| 1787393379 | 18.89° C | 99% | 1050.7 hPa | 0 mm | - | 0 W/m² | - |
| 1787393074 | 18.89° C | 99% | 1050.4 hPa | 0 mm | - | 0 W/m² | - |
| 1787392774 | 18.89° C | 99% | 1050.4 hPa | 0 mm | - | 0 W/m² | - |
| 1787392469 | 18.89° C | 99% | 1050.5 hPa | 0 mm | - | 0 W/m² | - |
| 1787392168 | 18.89° C | 99% | 1050.5 hPa | 0 mm | - | 0 W/m² | - |
| 1787391864 | 18.89° C | 99% | 1050.4 hPa | 0 mm | - | 0 W/m² | - |
| 1787391560 | 18.89° C | 99% | 1050.4 hPa | 0 mm | - | 0 W/m² | - |
| 1787391256 | 18.89° C | 99% | 1050.3 hPa | 0 mm | - | 0 W/m² | - |
| 1787390953 | 18.89° C | 99% | 1050.5 hPa | 0 mm | - | 0 W/m² | - |
| 1787390649 | 19.44° C | 99% | 1050.3 hPa | 0 mm | - | 0 W/m² | - |
| 1787390344 | 19.44° C | 99% | 1050.2 hPa | 0 mm | - | 0 W/m² | - |
| 1787390039 | 19.44° C | 99% | 1050.1 hPa | 0 mm | - | 0 W/m² | - |
| 1787389735 | 19.44° C | 99% | 1050.1 hPa | 0 mm | - | 0 W/m² | - |
| 1787389432 | 18.89° C | 98% | 1050 hPa | 0 mm | - | 0 W/m² | - |
| 1787389132 | 18.89° C | 98% | 1050.1 hPa | 0 mm | - | 0 W/m² | - |
| 1787388828 | 19.44° C | 98% | 1050 hPa | 0 mm | - | 0 W/m² | - |
| 1787388525 | 19.44° C | 98% | 1050.2 hPa | 0 mm | - | 0 W/m² | - |
| 1787388221 | 19.44° C | 98% | 1050 hPa | 0 mm | - | 0 W/m² | - |
| 1787387916 | 20° C | 98% | 1050.2 hPa | 0 mm | - | 0 W/m² | - |
| 1787387613 | 20° C | 98% | 1050.1 hPa | 0 mm | - | 0 W/m² | - |
| 1787387311 | 20° C | 98% | 1050.2 hPa | 0 mm | - | 0 W/m² | - |
* Rain latest hour (hover to see other rain measurements)
** Current wind speed in m/s (hover to see current wind gust speed)